TimeEDT,TemperatureF,Dew PointF,Humidity,Sea Level PressureIn,VisibilityMPH,Wind Direction,Wind SpeedMPH,Gust SpeedMPH,PrecipitationIn,Events,Conditions,WindDirDegrees,DateUTC
12:15 AM,42.8,39.2,87,29.85,0.8,ENE,6.9,-,0.03,,Overcast,70,2014-03-30 04:15:00
12:35 AM,42.8,39.2,87,29.83,0.8,East,5.8,-,0.07,,Overcast,80,2014-03-30 04:35:00
12:55 AM,46.4,44.6,93,29.80,1.0,SE,9.2,-,0.09,,Overcast,130,2014-03-30 04:55:00
1:15 AM,48.2,46.4,93,29.79,1.8,SE,16.1,21.9,0.01,,Overcast,130,2014-03-30 05:15:00
1:35 AM,48.2,46.4,93,29.77,1.2,SE,16.1,21.9,0.01,,Overcast,140,2014-03-30 05:35:00
1:55 AM,48.2,46.4,93,29.75,1.2,SE,16.1,23.0,0.02,,Overcast,130,2014-03-30 05:55:00
2:15 AM,48.2,46.4,93,29.73,1.2,SE,16.1,23.0,0.01,,Overcast,130,2014-03-30 06:15:00
2:35 AM,48.2,46.4,93,29.71,3.0,SE,17.3,26.5,0.07,,Overcast,130,2014-03-30 06:35:00
2:55 AM,48.2,46.4,93,29.69,5.0,SE,23.0,29.9,0.13,,Overcast,140,2014-03-30 06:55:00
3:15 AM,48.2,46.4,93,29.67,3.0,SE,17.3,26.5,0.04,,Overcast,140,2014-03-30 07:15:00
3:35 AM,48.2,46.4,93,29.65,4.0,SE,21.9,28.8,0.11,,Overcast,140,2014-03-30 07:35:00
3:55 AM,48.2,46.4,93,29.64,5.0,SE,21.9,29.9,0.17,,Overcast,140,2014-03-30 07:55:00
4:15 AM,48.2,46.4,93,29.63,2.5,SSE,25.3,31.1,0.04,,Overcast,150,2014-03-30 08:15:00
4:35 AM,50.0,48.2,94,29.61,2.5,SSE,23.0,33.4,0.12,,Overcast,150,2014-03-30 08:35:00
4:55 AM,51.8,48.2,88,29.59,3.0,SE,20.7,32.2,0.16,,Overcast,140,2014-03-30 08:55:00
5:15 AM,50.0,46.4,87,29.58,1.5,SSE,19.6,31.1,0.03,,Overcast,150,2014-03-30 09:15:00
5:35 AM,48.2,46.4,93,29.57,2.5,SSE,26.5,32.2,0.10,,Overcast,150,2014-03-30 09:35:00
5:55 AM,50.0,46.4,87,29.57,2.0,SSE,21.9,29.9,0.26,,Overcast,150,2014-03-30 09:55:00
6:15 AM,48.2,46.4,93,29.57,2.5,SSE,21.9,28.8,0.04,,Overcast,150,2014-03-30 10:15:00
6:35 AM,48.2,46.4,93,29.58,2.5,SSE,24.2,28.8,0.06,,Overcast,160,2014-03-30 10:35:00
6:55 AM,48.2,46.4,93,29.59,2.0,SSE,19.6,26.5,0.10,,Overcast,160,2014-03-30 10:55:00
7:15 AM,48.2,46.4,93,29.60,0.8,SSE,11.5,21.9,0.04,,Overcast,160,2014-03-30 11:15:00
7:35 AM,50.0,46.4,87,29.61,2.0,WSW,4.6,-,0.15,,Overcast,240,2014-03-30 11:35:00
7:55 AM,51.8,48.2,88,29.58,8.0,East,5.8,-,0.25,,Overcast,80,2014-03-30 11:55:00
8:15 AM,53.6,50.0,88,29.60,5.0,West,8.1,23.0,0.02,,Overcast,270,2014-03-30 12:15:00
8:35 AM,53.6,51.8,94,29.60,4.0,Calm,Calm,-,0.14,,Overcast,0,2014-03-30 12:35:00
8:55 AM,53.6,51.8,94,29.59,1.5,SW,4.6,-,0.16,,Overcast,230,2014-03-30 12:55:00
9:15 AM,53.6,51.8,94,29.58,0.5,South,8.1,-,0.02,,Overcast,190,2014-03-30 13:15:00
9:35 AM,53.6,51.8,94,29.57,1.2,SSE,5.8,-,0.03,,Overcast,150,2014-03-30 13:35:00
9:55 AM,53.6,51.8,94,29.56,0.5,SSE,6.9,-,0.04,,Overcast,160,2014-03-30 13:55:00
10:15 AM,53.6,50.0,88,29.55,1.2,SE,10.4,19.6,0.01,,Overcast,130,2014-03-30 14:15:00
10:35 AM,51.8,48.2,88,29.55,0.2,SE,12.7,-,0.01,,Overcast,130,2014-03-30 14:35:00
10:55 AM,51.8,48.2,88,29.54,0.2,SE,12.7,-,0.01,,Overcast,130,2014-03-30 14:55:00
11:15 AM,48.2,46.4,93,29.54,0.2,SE,9.2,-,N/A,,Overcast,140,2014-03-30 15:15:00
11:35 AM,51.8,48.2,88,29.53,0.2,SE,9.2,-,N/A,,Overcast,130,2014-03-30 15:35:00
11:55 AM,51.8,48.2,88,29.52,0.2,SSE,6.9,-,N/A,,Overcast,150,2014-03-30 15:55:00
12:15 PM,51.8,48.2,88,29.53,0.2,NE,4.6,-,N/A,,Overcast,40,2014-03-30 16:15:00
12:35 PM,48.2,46.4,93,29.53,0.2,NNE,3.5,-,N/A,,Overcast,30,2014-03-30 16:35:00
12:55 PM,48.2,46.4,93,29.53,0.2,NNE,6.9,-,N/A,,Overcast,30,2014-03-30 16:55:00
1:15 PM,46.4,44.6,93,29.53,0.2,NE,10.4,-,N/A,,Overcast,40,2014-03-30 17:15:00
1:35 PM,44.6,42.8,93,29.53,0.8,NNE,11.5,17.3,N/A,,Overcast,30,2014-03-30 17:35:00
1:55 PM,44.6,42.8,93,29.52,2.5,NNE,16.1,23.0,N/A,,Overcast,30,2014-03-30 17:55:00
2:15 PM,44.6,42.8,93,29.53,3.0,NNE,12.7,19.6,0.01,,Overcast,30,2014-03-30 18:15:00
2:35 PM,44.6,41.0,87,29.53,8.0,NNE,16.1,21.9,0.01,,Overcast,30,2014-03-30 18:35:00
2:55 PM,44.6,41.0,87,29.52,5.0,NNE,15.0,25.3,0.01,,Overcast,30,2014-03-30 18:55:00
3:15 PM,42.8,39.2,87,29.53,10.0,NNE,17.3,23.0,0.01,,Overcast,30,2014-03-30 19:15:00
3:35 PM,42.8,39.2,87,29.52,8.0,NNE,16.1,24.2,0.01,,Overcast,30,2014-03-30 19:35:00
3:55 PM,42.8,39.2,87,29.52,6.0,NE,13.8,24.2,0.01,,Overcast,40,2014-03-30 19:55:00
4:15 PM,42.8,37.4,81,29.51,7.0,NNE,19.6,32.2,N/A,,Overcast,30,2014-03-30 20:15:00
4:35 PM,41.0,37.4,87,29.50,7.0,NNE,19.6,32.2,0.01,,Overcast,30,2014-03-30 20:35:00
4:55 PM,41.0,37.4,87,29.51,4.0,NE,19.6,32.2,0.07,,Overcast,40,2014-03-30 20:55:00
5:15 PM,39.2,35.6,87,29.52,3.0,NE,13.8,34.5,0.05,,Overcast,50,2014-03-30 21:15:00
5:35 PM,39.2,35.6,87,29.51,4.0,NE,17.3,29.9,0.14,,Overcast,40,2014-03-30 21:35:00
5:55 PM,39.2,35.6,87,29.54,5.0,NE,17.3,28.8,0.17,,Overcast,40,2014-03-30 21:55:00
6:15 PM,39.2,35.6,87,29.53,3.0,NE,15.0,29.9,0.02,,Overcast,50,2014-03-30 22:15:00
6:35 PM,39.2,35.6,87,29.51,8.0,NE,17.3,32.2,0.02,,Overcast,40,2014-03-30 22:35:00
6:55 PM,39.2,35.6,87,29.52,8.0,NE,18.4,29.9,0.02,,Overcast,40,2014-03-30 22:55:00
7:15 PM,39.2,35.6,87,29.55,10.0,NE,15.0,27.6,N/A,,Overcast,40,2014-03-30 23:15:00
7:35 PM,39.2,35.6,87,29.56,10.0,NNE,18.4,25.3,N/A,,Overcast,30,2014-03-30 23:35:00
7:55 PM,39.2,33.8,81,29.58,9.0,NE,15.0,23.0,N/A,,Overcast,40,2014-03-30 23:55:00
8:15 PM,37.4,33.8,87,29.57,5.0,NE,18.4,25.3,0.02,,Overcast,40,2014-03-31 00:15:00
8:35 PM,37.4,33.8,87,29.58,10.0,NE,18.4,28.8,0.04,,Overcast,40,2014-03-31 00:35:00
8:55 PM,37.4,33.8,87,29.58,10.0,NNE,19.6,27.6,0.04,,Overcast,30,2014-03-31 00:55:00
9:15 PM,37.4,33.8,87,29.59,10.0,NNE,16.1,26.5,N/A,,Overcast,30,2014-03-31 01:15:00
9:35 PM,37.4,33.8,87,29.59,7.0,NE,18.4,31.1,0.01,,Overcast,40,2014-03-31 01:35:00
9:55 PM,37.4,33.8,87,29.58,9.0,NNE,18.4,25.3,0.01,,Overcast,30,2014-03-31 01:55:00
10:15 PM,37.4,33.8,87,29.59,9.0,NNE,19.6,27.6,N/A,,Overcast,30,2014-03-31 02:15:00
10:35 PM,37.4,33.8,87,29.60,10.0,NNE,18.4,28.8,0.01,,Overcast,30,2014-03-31 02:35:00
10:55 PM,37.4,33.8,87,29.61,10.0,NNE,17.3,29.9,0.01,,Overcast,30,2014-03-31 02:55:00
11:15 PM,37.4,33.8,87,29.61,10.0,NE,17.3,28.8,N/A,,Overcast,40,2014-03-31 03:15:00
11:35 PM,37.4,33.8,87,29.62,10.0,NE,13.8,23.0,N/A,,Overcast,40,2014-03-31 03:35:00
11:55 PM,37.4,33.8,87,29.62,10.0,NNE,17.3,27.6,N/A,,Overcast,30,2014-03-31 03:55:00